GW0207 Weather Reports


Display with metric or nautical units.
time (UTC)temp
F
wind
direction
speed
MPH
gust
MPH
rain 1hr
in
rain 24hr
in
rain mn
in
humidity
%
barometer
mb
20260905064920 75 81 0.0 0.0 0.00 0.00 0.00 89 1011.8
20260905064201 75 81 0.0 0.0 0.00 0.00 0.00 89 1011.9
20260905063700 75 81 0.0 0.0 0.00 0.00 0.00 90 1011.9
20260905063201 75 81 0.0 0.0 0.00 0.00 0.00 90 1012.0
20260905062703 75 81 0.0 0.0 0.00 0.00 0.00 89 1011.9
20260905062201 75 81 0.0 0.0 0.00 0.00 0.00 89 1012.2
20260905061927 75 81 0.0 0.0 0.00 0.00 0.00 89 1012.3
20260905061200 75 81 0.0 0.0 0.00 0.00 0.00 89 1012.5
20260905060701 75 81 0.0 0.0 0.00 0.00 0.00 89 1012.5
20260905060203 75 81 0.0 0.0 0.00 0.00 0.00 89 1012.5
20260905055704 75 81 0.0 0.0 0.00 0.00 0.00 89 1012.6
20260905055205 75 81 0.0 0.0 0.00 0.00 0.00 89 1012.6
20260905054701 76 81 0.0 0.0 0.00 0.00 0.00 89 1012.7
20260905054202 76 81 0.0 0.0 0.00 0.00 0.00 89 1012.6
20260905053702 76 81 0.0 1.0 0.00 0.00 0.00 89 1012.7
20260905053421 76 81 0.0 1.0 0.00 0.00 0.00 89 1012.9
20260905052701 76 81 0.0 1.0 0.00 0.00 0.00 89 1012.8
20260905052420 76 81 0.0 1.0 0.00 0.00 0.00 89 1012.9
20260905051700 76 81 0.0 1.0 0.00 0.00 0.00 89 1013.1
20260905051202 76 81 0.0 1.0 0.00 0.00 0.00 89 1013.2
20260905050702 76 81 0.0 0.0 0.00 0.00 0.00 89 1013.2
20260905050201 76 81 0.0 0.0 0.00 0.00 0.00 89 1013.3
20260905045701 76 81 0.0 0.0 0.00 0.00 0.00 89 1013.5
20260905045200 76 83 0.0 1.0 0.00 0.00 0.00 89 1013.6
20260905044701 76 57 0.0 2.0 0.00 0.00 0.00 89 1013.6
20260905044201 76 52 0.0 2.0 0.00 0.00 0.00 89 1013.6
20260905044142 76 209 0.0 2.0 0.00 0.00 0.00 89 1013.6
20260905043200 76 109 0.0 2.0 0.00 0.00 0.00 89 1013.6
20260905042703 77 233 0.0 5.0 0.00 0.00 0.00 89 1013.7
20260905042427 77 206 0.0 5.0 0.00 0.00 0.00 89 1013.6
20260905041701 77 80 0.0 2.0 0.00 0.00 0.00 89 1013.7
20260905041203 77 152 0.0 2.0 0.00 0.00 0.00 89 1013.7
20260905040920 77 188 0.0 1.0 0.00 0.00 0.00 89 1013.8
20260905040201 77 57 0.0 1.0 0.00 0.00 0.00 89 1013.6
20260905035703 77 52 0.0 1.0 0.00 0.00 0.00 90 1013.7
20260905035201 76 52 0.0 1.0 0.00 0.00 0.00 90 1013.6
20260905034847 76 48 0.0 1.0 0.00 0.00 0.00 90 1013.7
20260905034837 76 48 0.0 1.0 0.00 0.00 0.00 90 1013.6
20260905034620 76 67 0.0 1.0 0.00 0.00 0.00 91 1013.7
20260905033204 76 61 0.0 1.0 0.00 0.00 0.00 91 1013.7
20260905032703 76 81 0.0 2.0 0.00 0.00 0.00 90 1013.7
20260905032203 76 81 0.0 3.0 0.00 0.00 0.00 90 1013.6
20260905031922 76 60 1.0 3.0 0.00 0.00 0.00 90 1013.7
20260905031203 77 225 0.0 4.0 0.00 0.00 0.00 89 1013.7
20260905030703 77 158 0.0 4.0 0.00 0.00 0.00 89 1013.9
20260905030203 77 114 1.0 6.0 0.00 0.00 0.00 89 1014.1
20260905025703 77 222 1.0 6.0 0.00 0.00 0.00 88 1014.2
20260905025204 77 195 0.0 3.0 0.00 0.00 0.00 88 1014.1
20260905024704 77 209 0.0 2.0 0.00 0.00 0.00 87 1013.9
20260905024205 77 152 0.0 2.0 0.00 0.00 0.00 87 1014.0
20260905023703 77 264 0.0 2.0 0.00 0.00 0.00 87 1014.0
20260905023204 77 213 0.0 2.0 0.00 0.00 0.00 87 1014.0
20260905022700 77 224 0.0 3.0 0.00 0.00 0.00 87 1014.0
20260905022201 77 223 0.0 3.0 0.00 0.00 0.00 87 1014.0
20260905021701 77 270 0.0 6.0 0.00 0.00 0.00 87 1013.9
20260905021201 77 218 1.0 6.0 0.00 0.00 0.00 86 1014.3
20260905020702 78 29 0.0 5.0 0.00 0.00 0.00 86 1014.4
20260905020201 78 230 0.0 5.0 0.00 0.00 0.00 86 1014.4
20260905015923 78 266 0.0 2.0 0.00 0.00 0.00 86 1014.1
20260905015422 78 6 1.0 6.0 0.00 0.00 0.00 86 1013.8
20260905014701 78 217 1.0 8.0 0.00 0.00 0.00 85 1013.7
20260905014200 79 218 1.0 8.0 0.00 0.00 0.00 84 1014.0
20260905013701 79 240 1.0 3.0 0.00 0.00 0.00 83 1014.1
20260905013203 80 261 1.0 7.0 0.00 0.00 0.00 82 1014.3
20260905012703 80 228 1.0 7.0 0.00 0.00 0.00 81 1014.2
20260905012200 81 224 1.0 5.0 0.00 0.00 0.00 80 1014.1
20260905011701 83 254 2.0 8.0 0.00 0.00 0.00 78 1014.1
20260905011201 84 349 2.0 8.0 0.00 0.00 0.00 77 1014.1
20260905010918 86 246 2.0 9.0 0.00 0.00 0.00 73 1014.3
20260905010201 88 285 1.0 9.0 0.00 0.00 0.00 71 1014.0
20260905005701 88 329 0.0 4.0 0.00 0.00 0.00 71 1013.5
20260905005428 88 79 0.0 2.0 0.00 0.00 0.00 71 1013.4
20260905004701 88 243 0.0 2.0 0.00 0.00 0.00 70 1012.7
20260905004201 88 351 0.0 2.0 0.00 0.00 0.00 70 1012.1
20260905003701 88 17 1.0 5.0 0.00 0.00 0.00 70 1011.6
20260905003200 89 31 1.0 5.0 0.00 0.00 0.00 70 1011.3
20260905002701 89 26 0.0 3.0 0.00 0.00 0.00 70 1011.1
20260905002202 89 38 0.0 1.0 0.00 0.00 0.00 71 1011.3
20260905001922 89 41 0.0 1.0 0.00 0.00 0.00 71 1011.3
20260905001201 89 41 0.0 1.0 0.00 0.00 0.00 71 1011.2
20260905000702 89 38 0.0 1.0 0.00 0.00 0.00 71 1011.0
20260905000200 89 41 0.0 1.0 0.00 0.00 0.00 71 1011.0
20260904235703 89 41 0.0 1.0 0.00 0.00 0.00 71 1011.0
20260904235203 89 27 0.0 2.0 0.00 0.00 0.00 71 1011.0
20260904234703 89 27 0.0 2.0 0.00 0.00 0.00 71 1011.1
20260904234202 89 12 0.0 0.0 0.00 0.00 0.00 71 1011.3
20260904233703 89 12 0.0 1.0 0.00 0.00 0.00 70 1011.3
20260904233201 90 13 0.0 1.0 0.00 0.00 0.00 70 1011.3
20260904232702 90 14 0.0 0.0 0.00 0.00 0.00 69 1011.4
20260904232201 91 33 0.0 1.0 0.00 0.00 0.00 68 1011.5
20260904231701 91 34 0.0 1.0 0.00 0.00 0.00 68 1011.6
20260904231201 91 34 0.0 0.0 0.00 0.00 0.00 67 1011.7
20260904230701 91 34 0.0 1.0 0.00 0.00 0.00 67 1011.5
20260904230203 92 35 0.0 1.0 0.00 0.00 0.00 66 1011.5
20260904225701 92 36 0.0 1.0 0.00 0.00 0.00 66 1011.3
20260904225200 92 36 0.0 1.0 0.00 0.00 0.00 65 1011.2
20260904224701 92 36 0.0 1.0 0.00 0.00 0.00 65 1011.2
20260904224201 92 23 0.0 1.0 0.00 0.00 0.00 64 1011.1
20260904223701 93 30 0.0 1.0 0.00 0.00 0.00 64 1011.0
20260904223419 93 3 0.0 1.0 0.00 0.00 0.00 64 1011.1
20260904222701 93 355 0.0 1.0 0.00 0.00 0.00 65 1011.3
20260904222430 93 354 0.0 1.0 0.00 0.00 0.00 64 1011.2
20260904221703 93 48 0.0 1.0 0.00 0.00 0.00 64 1011.2
20260904221203 93 48 0.0 2.0 0.00 0.00 0.00 64 1011.3
20260904220703 93 64 0.0 2.0 0.00 0.00 0.00 63 1011.4
20260904220203 93 49 0.0 1.0 0.00 0.00 0.00 63 1011.5
20260904215703 94 26 0.0 1.0 0.00 0.00 0.00 62 1011.5
20260904215423 94 36 0.0 2.0 0.00 0.00 0.00 62 1011.7
20260904214703 94 38 0.0 3.0 0.00 0.00 0.00 61 1011.7
20260904214203 94 48 0.0 3.0 0.00 0.00 0.00 61 1011.5
20260904213703 94 57 0.0 2.0 0.00 0.00 0.00 61 1011.5
20260904213203 94 42 0.0 2.0 0.00 0.00 0.00 61 1011.5
20260904212704 95 27 0.0 4.0 0.00 0.00 0.00 60 1011.3
20260904212204 95 31 0.0 4.0 0.00 0.00 0.00 59 1011.4
20260904211702 95 16 0.0 4.0 0.00 0.00 0.00 59 1011.5
20260904211203 95 24 1.0 4.0 0.00 0.00 0.00 59 1011.5
20260904210704 96 37 0.0 3.0 0.00 0.00 0.00 58 1011.6
20260904210203 96 37 0.0 2.0 0.00 0.00 0.00 59 1011.3
20260904205926 96 41 0.0 2.0 0.00 0.00 0.00 58 1011.2
20260904205202 96 48 0.0 2.0 0.00 0.00 0.00 57 1011.0
20260904204704 97 15 0.0 1.0 0.00 0.00 0.00 57 1011.0
20260904204203 97 57 1.0 5.0 0.00 0.00 0.00 57 1010.7
20260904203703 97 311 1.0 5.0 0.00 0.00 0.00 56 1010.8
20260904203203 98 45 1.0 2.0 0.00 0.00 0.00 55 1010.9
20260904202703 98 9 1.0 2.0 0.00 0.00 0.00 55 1011.0
20260904202204 98 24 0.0 3.0 0.00 0.00 0.00 54 1011.1
20260904201703 99 54 0.0 3.0 0.00 0.00 0.00 55 1011.3
20260904201204 99 0 1.0 3.0 0.00 0.00 0.00 54 1011.4
20260904200703 99 330 1.0 3.0 0.00 0.00 0.00 54 1011.5
20260904200202 100 38 2.0 5.0 0.00 0.00 0.00 51 1011.8
20260904195704 100 28 1.0 5.0 0.00 0.00 0.00 50 1011.8
20260904195205 101 38 1.0 3.0 0.00 0.00 0.00 51 1011.9
20260904194703 100 50 1.0 4.0 0.00 0.00 0.00 50 1011.9
20260904194202 100 31 1.0 4.0 0.00 0.00 0.00 49 1012.0
20260904193703 100 38 1.0 3.0 0.00 0.00 0.00 49 1012.0
20260904193204 101 10 1.0 3.0 0.00 0.00 0.00 50 1012.2
20260904192703 101 48 1.0 3.0 0.00 0.00 0.00 51 1012.4
20260904192203 100 63 1.0 3.0 0.00 0.00 0.00 50 1012.3
20260904191703 100 57 1.0 2.0 0.00 0.00 0.00 51 1012.3
20260904191431 99 40 1.0 3.0 0.00 0.00 0.00 50 1012.5
20260904190703 100 98 1.0 3.0 0.00 0.00 0.00 50 1012.6
20260904190203 99 254 1.0 5.0 0.00 0.00 0.00 48 1012.6
20260904185703 99 31 1.0 5.0 0.00 0.00 0.00 50 1012.8
20260904185203 98 38 1.0 6.0 0.00 0.00 0.00 52 1012.9
20260904184704 98 121 1.0 6.0 0.00 0.00 0.00 52 1013.0
20260904184204 98 53 0.0 4.0 0.00 0.00 0.00 54 1013.1
20260904183704 98 195 0.0 3.0 0.00 0.00 0.00 52 1013.2
20260904183203 98 286 0.0 3.0 0.00 0.00 0.00 53 1013.3
20260904182705 98 29 0.0 3.0 0.00 0.00 0.00 55 1013.3
20260904182202 98 35 1.0 2.0 0.00 0.00 0.00 55 1013.4
20260904181703 98 270 1.0 3.0 0.00 0.00 0.00 54 1013.5
20260904181203 97 24 1.0 4.0 0.00 0.00 0.00 56 1013.5
20260904180703 97 33 1.0 4.0 0.00 0.00 0.00 57 1013.5
20260904180203 97 86 1.0 5.0 0.00 0.00 0.00 58 1013.6
20260904175923 97 269 1.0 5.0 0.00 0.00 0.00 58 1013.6
20260904175203 97 100 1.0 5.0 0.00 0.00 0.00 57 1013.7
20260904174703 97 38 1.0 5.0 0.00 0.00 0.00 58 1013.7
20260904174202 97 223 1.0 5.0 0.00 0.00 0.00 56 1013.7
20260904173702 97 43 1.0 3.0 0.00 0.00 0.00 61 1013.8
20260904173425 96 10 0.0 3.0 0.00 0.00 0.00 61 1013.9
20260904172703 96 12 0.0 3.0 0.00 0.00 0.00 62 1013.9
20260904172428 95 38 0.0 4.0 0.00 0.00 0.00 60 1013.9
20260904171656 95 13 1.0 4.0 0.00 0.00 0.00 61 1013.9
20260904171150 95 131 1.0 4.0 0.00 0.00 0.00 63 1014.0
20260904170644 95 313 1.0 3.0 0.00 0.00 0.00 63 1014.1
20260904170140 95 43 1.0 3.0 0.00 0.00 0.00 64 1014.1
20260904165637 95 64 0.0 2.0 0.00 0.00 0.00 65 1014.2
20260904165137 94 50 0.0 2.0 0.00 0.00 0.00 64 1014.2
20260904164636 94 22 1.0 2.0 0.00 0.00 0.00 65 1014.3
20260904164137 93 24 1.0 2.0 0.00 0.00 0.00 65 1014.4
20260904163638 93 353 0.0 2.0 0.00 0.00 0.00 66 1014.5
20260904163139 93 53 1.0 3.0 0.00 0.00 0.00 66 1014.6
20260904162636 93 39 1.0 3.0 0.00 0.00 0.00 66 1014.6
20260904162135 92 50 0.0 3.0 0.00 0.00 0.00 67 1014.7
20260904161635 92 40 1.0 3.0 0.00 0.00 0.00 67 1014.8
20260904161356 92 112 1.0 3.0 0.00 0.00 0.00 67 1014.9
20260904160635 92 32 0.0 3.0 0.00 0.00 0.00 70 1014.9
20260904160133 92 12 1.0 3.0 0.00 0.00 0.00 68 1014.9
20260904155631 92 30 1.0 3.0 0.00 0.00 0.00 68 1015.0
20260904155349 92 40 1.0 3.0 0.00 0.00 0.00 69 1015.0
20260904154859 91 36 1.0 2.0 0.00 0.00 0.00 70 1015.1
20260904154130 91 97 0.0 2.0 0.00 0.00 0.00 70 1015.1
20260904153631 91 33 0.0 2.0 0.00 0.00 0.00 71 1015.1
20260904153131 90 131 1.0 3.0 0.00 0.00 0.00 70 1015.1
20260904152632 91 20 0.0 3.0 0.00 0.00 0.00 71 1015.2
20260904152131 90 353 0.0 1.0 0.00 0.00 0.00 72 1015.1
20260904151630 90 342 0.0 2.0 0.00 0.00 0.00 71 1015.0
20260904151132 90 37 0.0 3.0 0.00 0.00 0.00 72 1015.0
20260904150631 89 46 1.0 3.0 0.00 0.00 0.00 73 1015.0
20260904150131 89 38 1.0 4.0 0.00 0.00 0.00 72 1015.1
20260904145632 89 346 1.0 4.0 0.00 0.00 0.00 72 1015.1
20260904145132 89 22 1.0 2.0 0.00 0.00 0.00 72 1015.2
20260904144631 89 27 1.0 2.0 0.00 0.00 0.00 73 1015.2
20260904144131 88 35 1.0 3.0 0.00 0.00 0.00 73 1015.2
20260904143631 88 0 1.0 4.0 0.00 0.00 0.00 73 1015.2
20260904143131 88 43 1.0 4.0 0.00 0.00 0.00 73 1015.3
20260904142630 88 38 1.0 6.0 0.00 0.00 0.00 73 1015.3
20260904142131 88 38 1.0 6.0 0.00 0.00 0.00 74 1015.3
20260904141633 88 34 1.0 3.0 0.00 0.00 0.00 74 1015.2
20260904141131 87 15 0.0 2.0 0.00 0.00 0.00 74 1015.1
20260904141120 87 356 1.0 4.0 0.00 0.00 0.00 75 1015.1
20260904140125 87 349 1.0 4.0 0.00 0.00 0.00 75 1015.1
20260904135843 87 36 1.0 4.0 0.00 0.00 0.00 77 1015.1
20260904135121 86 356 0.0 2.0 0.00 0.00 0.00 77 1015.1
20260904134622 86 34 0.0 2.0 0.00 0.00 0.00 79 1015.1
20260904134121 85 7 0.0 2.0 0.00 0.00 0.00 79 1015.2
20260904133621 85 351 0.0 2.0 0.00 0.00 0.00 79 1015.2
20260904133119 85 34 0.0 2.0 0.00 0.00 0.00 80 1015.2
20260904133101 85 35 0.0 2.0 0.00 0.00 0.00 80 1015.2
20260904132117 84 32 0.0 2.0 0.00 0.00 0.00 81 1015.2
20260904132100 84 40 0.0 2.0 0.00 0.00 0.00 81 1015.3
20260904131111 84 40 1.0 2.0 0.00 0.00 0.00 82 1015.3
20260904130611 83 43 0.0 2.0 0.00 0.00 0.00 83 1015.3
20260904130111 83 338 0.0 1.0 0.00 0.00 0.00 84 1015.4
20260904125609 83 31 0.0 2.0 0.00 0.00 0.00 85 1015.3
20260904125109 82 34 0.0 2.0 0.00 0.00 0.00 85 1015.3
20260904124827 81 29 0.0 2.0 0.00 0.00 0.00 86 1015.4
20260904124107 81 36 0.0 1.0 0.00 0.00 0.00 87 1015.4
20260904123605 80 36 0.0 1.0 0.00 0.00 0.00 88 1015.3
20260904123105 80 26 0.0 1.0 0.00 0.00 0.00 89 1015.4
20260904122606 79 0 0.0 1.0 0.00 0.00 0.00 90 1015.5
20260904122105 79 22 0.0 1.0 0.00 0.00 0.00 91 1015.5
20260904121605 78 29 0.0 1.0 0.00 0.00 0.00 91 1015.5
20260904121105 78 32 0.0 0.0 0.00 0.00 0.00 92 1015.5
20260904120605 78 32 0.0 1.0 0.00 0.00 0.00 92 1015.5
20260904120105 78 32 0.0 1.0 0.00 0.00 0.00 92 1015.5
20260904115602 77 27 0.0 1.0 0.00 0.00 0.00 93 1015.4
20260904115101 77 47 0.0 1.0 0.00 0.00 0.00 93 1015.4
20260904114601 77 347 0.0 0.0 0.00 0.00 0.00 93 1015.4
20260904114100 77 346 0.0 0.0 0.00 0.00 0.00 93 1015.4
20260904113602 77 339 0.0 0.0 0.00 0.00 0.00 93 1015.4
20260904113313 77 339 0.0 0.0 0.00 0.00 0.00 93 1015.4
20260904113301 77 339 0.0 0.0 0.00 0.00 0.00 93 1015.3
20260904112103 77 339 0.0 0.0 0.00 0.00 0.00 93 1015.3
20260904111605 77 325 0.0 0.0 0.00 0.00 0.00 93 1015.3
20260904111103 77 325 0.0 0.0 0.00 0.00 0.00 93 1015.2
20260904110603 77 48 0.0 0.0 0.00 0.00 0.00 93 1015.2
20260904105603 77 48 0.0 1.0 0.00 0.00 0.00 92 1015.2
20260904105102 77 48 0.0 1.0 0.00 0.00 0.00 92 1015.2
20260904104603 77 48 0.0 0.0 0.00 0.00 0.00 92 1015.2
20260904104104 77 48 0.0 1.0 0.00 0.00 0.00 92 1015.2
20260904103605 77 50 0.0 1.0 0.00 0.00 0.00 92 1015.2
20260904103103 77 33 0.0 1.0 0.00 0.00 0.00 92 1015.2
20260904102605 77 33 0.0 1.0 0.00 0.00 0.00 91 1015.2
20260904102103 77 33 0.0 1.0 0.00 0.00 0.00 91 1015.2
20260904101603 77 33 0.0 1.0 0.00 0.00 0.00 91 1015.2
20260904101103 77 33 0.0 1.0 0.00 0.00 0.00 91 1015.1
20260904100604 77 35 0.0 1.0 0.00 0.00 0.00 91 1015.1
20260904095603 77 35 0.0 0.0 0.00 0.00 0.00 91 1015.1
20260904095104 77 34 0.0 0.0 0.00 0.00 0.00 91 1015.1
20260904094604 77 34 0.0 0.0 0.00 0.00 0.00 90 1015.1
20260904094103 77 34 0.0 1.0 0.00 0.00 0.00 91 1015.1
20260904093604 77 34 0.0 1.0 0.00 0.00 0.00 90 1015.1
20260904093101 77 33 0.0 0.0 0.00 0.00 0.00 90 1015.1
20260904092601 77 34 0.0 1.0 0.00 0.00 0.00 90 1015.1
20260904092101 78 34 0.0 1.0 0.00 0.00 0.00 90 1015.0
20260904091602 78 34 0.0 1.0 0.00 0.00 0.00 90 1014.9
20260904091101 77 33 0.0 1.0 0.00 0.00 0.00 90 1014.9
20260904090600 77 41 0.0 0.0 0.00 0.00 0.00 90 1014.9
20260904090101 78 41 0.0 0.0 0.00 0.00 0.00 89 1014.8
20260904085823 78 41 0.0 0.0 0.00 0.00 0.00 89 1014.8
20260904085100 78 41 0.0 0.0 0.00 0.00 0.00 88 1014.8
20260904084601 78 41 0.0 0.0 0.00 0.00 0.00 88 1014.8
20260904084101 78 41 0.0 1.0 0.00 0.00 0.00 88 1014.7
20260904083601 79 41 0.0 1.0 0.00 0.00 0.00 87 1014.7
20260904083101 79 41 0.0 1.0 0.00 0.00 0.00 87 1014.6
20260904082600 79 41 0.0 1.0 0.00 0.00 0.00 87 1014.5
20260904082100 79 41 0.0 1.0 0.00 0.00 0.00 87 1014.5
20260904081603 79 41 0.0 1.0 0.00 0.00 0.00 87 1014.6
20260904081103 79 41 0.0 1.0 0.00 0.00 0.00 86 1014.6
20260904080814 79 41 0.0 1.0 0.00 0.00 0.00 86 1014.7
20260904080048 79 41 0.0 1.0 0.00 0.00 0.00 86 1014.7
20260904075808 79 41 0.0 1.0 0.00 0.00 0.00 86 1014.6
20260904075044 79 41 0.0 1.0 0.00 0.00 0.00 86 1014.6
20260904074541 79 41 0.0 1.0 0.00 0.00 0.00 85 1014.5
20260904074041 79 41 0.0 1.0 0.00 0.00 0.00 85 1014.5
20260904073541 79 41 0.0 1.0 0.00 0.00 0.00 85 1014.5
20260904073039 80 41 0.0 1.0 0.00 0.00 0.00 85 1014.5
20260904072539 80 41 0.0 2.0 0.00 0.00 0.00 84 1014.5
20260904072039 80 41 0.0 2.0 0.00 0.00 0.00 84 1014.5
20260904071538 80 32 0.0 2.0 0.00 0.00 0.00 84 1014.5
20260904071306 80 38 0.0 2.0 0.00 0.00 0.00 84 1014.6
20260904070537 80 49 0.0 1.0 0.00 0.00 0.00 84 1014.5
20260904070035 80 55 0.0 1.0 0.00 0.00 0.00 84 1014.6
20260904065533 80 55 0.0 1.0 0.00 0.00 0.00 84 1014.7